Weather History for KMLC - November, 2012

Change the Weather History Date:

Friday, November 16, 2012

  Actual Average Record
Temperature  
Mean Temperature 47 °F -  
Max Temperature 64 °F 60 °F 80 °F (1963)
Min Temperature 30 °F 40 °F 19 °F (1997)
Degree Days  
Heating Degree Days 18    
Moisture  
Dew Point 31 °F    
Average Humidity 64    
Maximum Humidity 92    
Minimum Humidity 27    
Precipitation  
Precipitation 0.00 in - - ()
Sea Level Pressure  
Sea Level Pressure 30.39 in    
Wind  
Wind Speed 1 mph (ENE)    
Max Wind Speed 6 mph    
Max Gust Speed -    
Visibility 10 miles    
Events      
Averages and records for this station are not official NWS values.
T = Trace of Precipitation, MM = Missing Value Source: NWS Daily Summary

Daily Weather History Graph

Daily Weather History Graph

Search for Another Location

Airport or City:

Trip Planner

Search our weather history database for the weather conditions in past years. The results will help you decide how hot, cold, wet, or windy it might be!

Date:

Astronomy

Nov. 16, 2012 Rise Set
Actual Time 6:58 AM CST 5:16 PM CST
Civil Twilight 6:31 AM CST 5:43 PM CST
Nautical Twilight 6:01 AM CST 6:14 PM CST
Astronomical Twilight 5:31 AM CST 6:44 PM CST
Moon 9:52 AM CST (11/16) 8:19 PM CST (11/16)
Length of Visible Light 11h 11m
Length of Day
10h 18m
Waxing Crescent, 12% of the Moon is Illuminated
Nov 16
Waxing Crescent
Nov 20
First Quarter
Nov 28
Full
Dec 6
Last Quarter
Dec 13
New

Hourly Weather History & Observations

Time (CST) Temp. Windchill Dew Point Humidity Pressure Visibility Wind Dir Wind Speed Gust Speed Precip Events Conditions
12:53 AM 34.0 °F - 30.0 °F 85% 30.37 in 10.0 mi Calm Calm - N/A   Scattered Clouds
1:53 AM 32.0 °F - 28.9 °F 88% 30.38 in 10.0 mi Calm Calm - N/A   Clear
2:53 AM 30.9 °F - 28.9 °F 92% 30.38 in 10.0 mi Calm Calm - N/A   Partly Cloudy
3:53 AM 30.9 °F - 28.9 °F 92% 30.39 in 10.0 mi Calm Calm - N/A   Partly Cloudy
4:53 AM 30.0 °F - 28.0 °F 92% 30.39 in 10.0 mi Calm Calm - N/A   Partly Cloudy
5:53 AM 30.0 °F - 28.0 °F 92% 30.41 in 10.0 mi Calm Calm - N/A   Partly Cloudy
6:53 AM 30.0 °F - 28.0 °F 92% 30.42 in 10.0 mi Calm Calm - N/A   Clear
7:53 AM 32.0 °F - 30.0 °F 92% 30.44 in 10.0 mi Calm Calm - N/A   Partly Cloudy
8:53 AM 43.0 °F - 35.1 °F 74% 30.44 in 10.0 mi Calm Calm - N/A   Partly Cloudy
9:53 AM 50.0 °F - 37.0 °F 61% 30.45 in 10.0 mi Calm Calm - N/A   Partly Cloudy
10:53 AM 57.9 °F - 34.0 °F 41% 30.44 in 10.0 mi North 4.6 mph - N/A   Partly Cloudy
11:53 AM 61.0 °F - 32.0 °F 34% 30.41 in 10.0 mi Variable 5.8 mph - N/A   Clear
12:53 PM 62.1 °F - 30.9 °F 31% 30.39 in 10.0 mi East 5.8 mph - N/A   Partly Cloudy
1:53 PM 63.0 °F - 28.0 °F 27% 30.36 in 10.0 mi Calm Calm - N/A   Partly Cloudy
2:53 PM 64.0 °F - 28.9 °F 27% 30.35 in 10.0 mi NE 4.6 mph - N/A   Clear
3:53 PM 64.0 °F - 30.9 °F 29% 30.35 in 10.0 mi NE 4.6 mph - N/A   Clear
4:53 PM 61.0 °F - 30.9 °F 32% 30.35 in 10.0 mi Calm Calm - N/A   Clear
5:53 PM 50.0 °F - 35.1 °F 57% 30.36 in 10.0 mi NE 3.5 mph - N/A   Partly Cloudy
6:53 PM 48.9 °F - 33.1 °F 54% 30.37 in 10.0 mi Calm Calm - N/A   Partly Cloudy
7:53 PM 43.0 °F - 34.0 °F 71% 30.38 in 10.0 mi Calm Calm - N/A   Clear
8:53 PM 41.0 °F - 33.1 °F 73% 30.38 in 10.0 mi Calm Calm - N/A   Scattered Clouds
9:53 PM 39.9 °F 37.8 °F 33.1 °F 77% 30.38 in 10.0 mi East 3.5 mph - N/A   Partly Cloudy
10:53 PM 46.0 °F 43.9 °F 30.0 °F 54% 30.38 in 10.0 mi ESE 4.6 mph - N/A   Partly Cloudy
11:53 PM 43.0 °F 41.3 °F 30.9 °F 62% 30.38 in 10.0 mi East 3.5 mph - N/A   Clear